Satellite: HOT BIRD 1
Catalog number: 23537
Epoch time:      103099.84635997
Element set:     540 
Inclination:        0.0227 deg
RA of node:       231.2698 deg
Eccentricity:    0.0003930
Arg of perigee:   159.6337 deg
Mean anomaly:     124.4056 deg
Mean motion:    1.00270936 rev/day
Decay rate:    8.8000E-007 rev/day^2
Epoch rev:            2947
Checksum:              297

Satellite: GOES 9
Catalog number: 23581
Epoch time:      103120.44573221
Element set:     643 
Inclination:        0.0941 deg
RA of node:       278.1004 deg
Eccentricity:    0.0000552
Arg of perigee:   325.1023 deg
Mean anomaly:     289.6169 deg
Mean motion:    1.00273964 rev/day
Decay rate:   -1.5800E-006 rev/day^2
Epoch rev:            2907
Checksum:              262

Satellite: INMARSAT 3-F1
Catalog number: 23839
Epoch time:      103119.94790824
Element set:     923 
Inclination:        0.0752 deg
RA of node:        29.8825 deg
Eccentricity:    0.0004172
Arg of perigee:   359.8029 deg
Mean anomaly:     232.9113 deg
Mean motion:    1.00271239 rev/day
Decay rate:    1.8999E-007 rev/day^2
Epoch rev:            2591
Checksum:              421

Satellite: ASTRA 1F
Catalog number: 23842
Epoch time:      103120.00000000
Element set:     568 
Inclination:        0.0122 deg
RA of node:       319.8851 deg
Eccentricity:    0.0002995
Arg of perigee:    65.1991 deg
Mean anomaly:     211.5881 deg
Mean motion:    1.00273184 rev/day
Decay rate:    1.2100E-006 rev/day^2
Epoch rev:            2582
Checksum:              229

Satellite: FO-29
Catalog number: 24278
Epoch time:      103120.90994380
Element set:     580 
Inclination:       98.5499 deg
RA of node:       262.4806 deg
Eccentricity:    0.0351455
Arg of perigee:    31.6778 deg
Mean anomaly:     330.4991 deg
Mean motion:   13.52879276 rev/day
Decay rate:    9.9999E-009 rev/day^2
Epoch rev:           33095
Checksum:              384

Satellite: UNAMSAT
Catalog number: 24305
Epoch time:      103120.95410748
Element set:     690 
Inclination:       82.9296 deg
RA of node:       209.9889 deg
Eccentricity:    0.0031963
Arg of perigee:     6.3529 deg
Mean anomaly:     353.8015 deg
Mean motion:   13.73461147 rev/day
Decay rate:    2.0499E-006 rev/day^2
Epoch rev:           33328
Checksum:              320

Satellite: INMARSAT 3-F2
Catalog number: 24307
Epoch time:      103116.61031228
Element set:     114 
Inclination:        0.1353 deg
RA of node:        22.0307 deg
Eccentricity:    0.0005537
Arg of perigee:     5.4672 deg
Mean anomaly:      30.9069 deg
Mean motion:    1.00271077 rev/day
Decay rate:   -1.3500E-006 rev/day^2
Epoch rev:            2429
Checksum:              227

Satellite: HOT BIRD 2
Catalog number: 24665
Epoch time:      103104.95823611
Element set:     349 
Inclination:        0.0337 deg
RA of node:       189.6656 deg
Eccentricity:    0.0009067
Arg of perigee:   269.9979 deg
Mean anomaly:     100.9111 deg
Mean motion:    1.00271489 rev/day
Decay rate:    9.9999E-009 rev/day^2
Epoch rev:            2381
Checksum:              334

Satellite: INMARSAT 3-F3
Catalog number: 24674
Epoch time:      103121.10625505
Element set:     39 
Inclination:        0.0989 deg
RA of node:        74.6719 deg
Eccentricity:    0.0003049
Arg of perigee:   307.0492 deg
Mean anomaly:      53.3105 deg
Mean motion:    1.00271823 rev/day
Decay rate:    9.9999E-009 rev/day^2
Epoch rev:            2330
Checksum:              286

Satellite: GOES 10
Catalog number: 24786
Epoch time:      103120.29225164
Element set:     660 
Inclination:        0.3093 deg
RA of node:        99.8953 deg
Eccentricity:    0.0004674
Arg of perigee:   326.4817 deg
Mean anomaly:     121.9610 deg
Mean motion:    1.00285667 rev/day
Decay rate:    8.8000E-007 rev/day^2
Epoch rev:            2204
Checksum:              389

Satellite: INMARSAT 3-F4
Catalog number: 24819
Epoch time:      103120.70623315
Element set:     915 
Inclination:        0.0786 deg
RA of node:        62.4635 deg
Eccentricity:    0.0005047
Arg of perigee:    22.1654 deg
Mean anomaly:     333.7451 deg
Mean motion:    1.00264676 rev/day
Decay rate:    9.9999E-009 rev/day^2
Epoch rev:            2172
Checksum:              296

Satellite: FENGYUN 2A
Catalog number: 24834
Epoch time:      103120.60596296
Element set:     9 
Inclination:        2.7475 deg
RA of node:        87.6744 deg
Eccentricity:    0.0001153
Arg of perigee:   359.5094 deg
Mean anomaly:      75.3748 deg
Mean motion:    1.00266403 rev/day
Decay rate:   -1.9100E-006 rev/day^2
Epoch rev:            2155
Checksum:              283

Satellite: HOT BIRD 3
Catalog number: 24931
Epoch time:      103099.84635997
Element set:     430 
Inclination:        0.0632 deg
RA of node:        21.1145 deg
Eccentricity:    0.0006301
Arg of perigee:   353.2368 deg
Mean anomaly:     140.9901 deg
Mean motion:    1.00272510 rev/day
Decay rate:    8.8000E-007 rev/day^2
Epoch rev:            2058
Checksum:              255

Satellite: METEOSAT 7
Catalog number: 24932
Epoch time:      103117.88490163
Element set:     279 
Inclination:        0.3737 deg
RA of node:        78.6758 deg
Eccentricity:    0.0000683
Arg of perigee:   276.9623 deg
Mean anomaly:     177.8607 deg
Mean motion:    1.00271609 rev/day
Decay rate:   -1.3999E-007 rev/day^2
Epoch rev:            2070
Checksum:              330

Satellite: ASTRA 1G
Catalog number: 25071
Epoch time:      103120.00000000
Element set:     400 
Inclination:        0.0122 deg
RA of node:       319.8851 deg
Eccentricity:    0.0002995
Arg of perigee:    65.1991 deg
Mean anomaly:     211.6329 deg
Mean motion:    1.00273184 rev/day
Decay rate:    1.2199E-006 rev/day^2
Epoch rev:            1984
Checksum:              231

Satellite: INMARSAT 3-F5
Catalog number: 25153
Epoch time:      103120.93639050
Element set:     882 
Inclination:        0.4625 deg
RA of node:         4.7330 deg
Eccentricity:    0.0003020
Arg of perigee:     0.2826 deg
Mean anomaly:     215.6117 deg
Mean motion:    1.00276975 rev/day
Decay rate:    1.4600E-006 rev/day^2
Epoch rev:            1921
Checksum:              240

Satellite: HOT BIRD 4
Catalog number: 25237
Epoch time:      103099.84635997
Element set:     334 
Inclination:        0.0316 deg
RA of node:       347.7932 deg
Eccentricity:    0.0006645
Arg of perigee:    69.4486 deg
Mean anomaly:      98.0254 deg
Mean motion:    1.00270260 rev/day
Decay rate:    8.7000E-007 rev/day^2
Epoch rev:            1904
Checksum:              300

Satellite: NOAA-15
Catalog number: 25338
Epoch time:      103121.46581405
Element set:     98 
Inclination:       98.5425 deg
RA of node:       141.6559 deg
Eccentricity:    0.0011605
Arg of perigee:   106.1625 deg
Mean anomaly:     254.0835 deg
Mean motion:   14.24279415 rev/day
Decay rate:    2.2900E-006 rev/day^2
Epoch rev:           25803
Checksum:              294

Satellite: RESURS O1-N4
Catalog number: 25394
Epoch time:      103120.95986678
Element set:     509 
Inclination:       98.6204 deg
RA of node:       197.5281 deg
Eccentricity:    0.0000433
Arg of perigee:   256.0302 deg
Mean anomaly:     104.0828 deg
Mean motion:   14.23904636 rev/day
Decay rate:    1.6699E-006 rev/day^2
Epoch rev:           24969
Checksum:              335

Satellite: TO-31
Catalog number: 25396
Epoch time:      103120.94842882
Element set:     865 
Inclination:       98.6141 deg
RA of node:       196.6096 deg
Eccentricity:    0.0001702
Arg of perigee:   300.0682 deg
Mean anomaly:      60.0329 deg
Mean motion:   14.23533725 rev/day
Decay rate:   -4.3000E-007 rev/day^2
Epoch rev:           24968
Checksum:              303

Satellite: GO-32
Catalog number: 25397
Epoch time:      103120.92782127
Element set:     183 
Inclination:       98.6092 deg
RA of node:       195.3800 deg
Eccentricity:    0.0000710
Arg of perigee:   351.2422 deg
Mean anomaly:       8.8741 deg
Mean motion:   14.22976596 rev/day
Decay rate:    7.4000E-007 rev/day^2
Epoch rev:           24964
Checksum:              432

Satellite: ASTRA 2A
Catalog number: 25462
Epoch time:      103120.15423332
Element set:     543 
Inclination:        0.0371 deg
RA of node:       333.9509 deg
Eccentricity:    0.0010288
Arg of perigee:   336.3054 deg
Mean anomaly:     351.2120 deg
Mean motion:    1.00271596 rev/day
Decay rate:    9.9999E-009 rev/day^2
Epoch rev:            1714
Checksum:              268

Satellite: EUTELSAT W2
Catalog number: 25491
Epoch time:      103119.97086042
Element set:     603 
Inclination:        0.0511 deg
RA of node:        64.0287 deg
Eccentricity:    0.0003370
Arg of perigee:   350.8417 deg
Mean anomaly:     168.1241 deg
Mean motion:    1.00273013 rev/day
Decay rate:    1.0600E-006 rev/day^2
Epoch rev:            1675
Checksum:              238

Satellite: HOT BIRD 5
Catalog number: 25495
Epoch time:      103120.93639050
Element set:     514 
Inclination:        0.0264 deg
RA of node:        80.8669 deg
Eccentricity:    0.0004676
Arg of perigee:   313.2391 deg
Mean anomaly:     187.2899 deg
Mean motion:    1.00276395 rev/day
Decay rate:    1.5099E-006 rev/day^2
Epoch rev:            1673
Checksum:              308

